Time,TemperatureF,DewpointF,PressureIn,WindDirection,WindDirectionDegrees,WindSpeedMPH,WindSpeedGustMPH,Humidity,HourlyPrecipIn,Conditions,Clouds,dailyrainin,SoftwareType,DateUTC
2013-07-26 00:00:00,71.6,61.7,29.89,North,360,0.0,6.0,71,0.00,,FEW250,0.00,VWS V14.01,2013-07-26 05:00:00,
2013-07-26 00:05:00,71.5,61.6,29.89,North,360,0.0,6.0,71,0.00,,OVC240,0.00,VWS V14.01,2013-07-26 05:05:00,
2013-07-26 00:10:00,71.4,61.5,29.89,SW,221,0.0,9.0,71,0.00,,OVC240,0.00,VWS V14.01,2013-07-26 05:10:00,
2013-07-26 00:15:00,71.2,61.3,29.90,North,360,6.0,9.0,71,0.00,,OVC240,0.00,VWS V14.01,2013-07-26 05:15:00,
2013-07-26 00:20:00,71.0,61.5,29.89,North,360,4.0,10.0,72,0.00,,OVC240,0.00,VWS V14.01,2013-07-26 05:20:00,
2013-07-26 00:25:00,70.9,61.4,29.90,North,360,8.0,8.0,72,0.00,,OVC240,0.00,VWS V14.01,2013-07-26 05:25:00,
2013-07-26 00:30:00,70.8,61.7,29.89,North,360,4.0,12.0,73,0.00,,OVC240,0.00,VWS V14.01,2013-07-26 05:30:00,
2013-07-26 00:35:00,70.7,61.6,29.90,North,360,5.0,10.0,73,0.00,,OVC240,0.00,VWS V14.01,2013-07-26 05:35:00,
2013-07-26 00:40:00,70.6,61.5,29.90,North,360,5.0,10.0,73,0.00,,OVC240,0.00,VWS V14.01,2013-07-26 05:40:00,
2013-07-26 00:45:00,70.6,61.5,29.90,North,360,3.0,7.0,73,0.00,,OVC240,0.00,VWS V14.01,2013-07-26 05:45:00,
2013-07-26 00:50:00,70.6,61.5,29.90,North,360,7.0,7.0,73,0.00,,FEW250,0.00,VWS V14.01,2013-07-26 05:50:00,
2013-07-26 00:51:00,70.5,61.4,29.90,North,360,2.0,8.0,73,0.00,,OVC240,0.00,VWS V14.01,2013-07-26 05:51:00,
2013-07-26 00:55:00,70.5,61.4,29.90,SSW,200,3.0,7.0,73,0.00,,FEW250,0.00,VWS V14.01,2013-07-26 05:55:00,
2013-07-26 00:56:00,70.5,61.4,29.90,North,360,0.0,6.0,73,0.00,,OVC240,0.00,VWS V14.01,2013-07-26 05:56:00,
2013-07-26 01:00:00,70.5,61.4,29.90,North,360,0.0,9.0,73,0.00,,FEW250,0.00,VWS V14.01,2013-07-26 06:00:00,
2013-07-26 01:01:00,70.5,61.4,29.89,North,360,4.0,9.0,73,0.00,,BKN200,0.00,VWS V14.01,2013-07-26 06:01:00,
2013-07-26 01:05:00,70.5,61.4,29.89,North,360,2.0,9.0,73,0.00,,FEW250,0.00,VWS V14.01,2013-07-26 06:05:00,
2013-07-26 01:06:00,70.4,61.3,29.89,North,360,8.0,9.0,73,0.00,,BKN200,0.00,VWS V14.01,2013-07-26 06:06:00,
2013-07-26 01:10:00,70.4,61.3,29.89,SSW,213,4.0,8.0,73,0.00,,FEW250,0.00,VWS V14.01,2013-07-26 06:10:00,
2013-07-26 01:11:00,70.4,61.3,29.89,North,360,0.0,8.0,73,0.00,,BKN200,0.00,VWS V14.01,2013-07-26 06:11:00,
2013-07-26 01:15:00,70.4,61.3,29.89,North,360,2.0,7.0,73,0.00,,FEW250,0.00,VWS V14.01,2013-07-26 06:15:00,
2013-07-26 01:16:00,70.3,61.2,29.89,North,360,0.0,7.0,73,0.00,,BKN200,0.00,VWS V14.01,2013-07-26 06:16:00,
2013-07-26 01:20:00,70.3,61.6,29.89,North,360,0.0,8.0,74,0.00,,FEW250,0.00,VWS V14.01,2013-07-26 06:20:00,
2013-07-26 01:21:00,70.3,61.6,29.89,North,360,0.0,8.0,74,0.00,,BKN200,0.00,VWS V14.01,2013-07-26 06:21:00,
2013-07-26 01:25:00,70.2,61.5,29.89,SW,214,5.0,8.0,74,0.00,,FEW250,0.00,VWS V14.01,2013-07-26 06:25:00,
2013-07-26 01:26:00,70.2,61.5,29.89,North,360,5.0,8.0,74,0.00,,BKN200,0.00,VWS V14.01,2013-07-26 06:26:00,
2013-07-26 01:30:00,70.1,61.4,29.89,SSW,195,4.0,8.0,74,0.00,,FEW250,0.00,VWS V14.01,2013-07-26 06:30:00,
2013-07-26 01:31:00,70.1,61.4,29.89,South,181,4.0,8.0,74,0.00,,BKN200,0.00,VWS V14.01,2013-07-26 06:31:00,
2013-07-26 01:35:00,70.1,61.4,29.89,North,360,1.0,9.0,74,0.00,,FEW250,0.00,VWS V14.01,2013-07-26 06:35:00,
2013-07-26 01:36:00,70.1,61.4,29.89,South,185,2.0,7.0,74,0.00,,BKN200,0.00,VWS V14.01,2013-07-26 06:36:00,
2013-07-26 01:40:00,70.0,61.3,29.89,SSW,208,7.0,9.0,74,0.00,,FEW250,0.00,VWS V14.01,2013-07-26 06:40:00,
2013-07-26 01:41:00,70.0,61.7,29.89,North,360,0.0,8.0,75,0.00,,BKN200,0.00,VWS V14.01,2013-07-26 06:41:00,
2013-07-26 01:45:00,69.9,61.6,29.89,North,360,0.0,8.0,75,0.00,,FEW250,0.00,VWS V14.01,2013-07-26 06:45:00,
2013-07-26 01:46:00,69.9,61.6,29.89,North,360,0.0,8.0,75,0.00,,BKN200,0.00,VWS V14.01,2013-07-26 06:46:00,
2013-07-26 01:50:00,69.8,61.5,29.89,SSW,205,0.0,5.0,75,0.00,,FEW250,0.00,VWS V14.01,2013-07-26 06:50:00,
2013-07-26 01:51:00,69.7,61.4,29.89,North,360,0.0,0.0,75,0.00,,BKN200,0.00,VWS V14.01,2013-07-26 06:51:00,
2013-07-26 01:55:00,69.6,61.3,29.89,SSW,194,0.0,0.0,75,0.00,,FEW250,0.00,VWS V14.01,2013-07-26 06:55:00,
2013-07-26 01:56:00,69.5,61.2,29.89,North,360,0.0,0.0,75,0.00,,BKN200,0.00,VWS V14.01,2013-07-26 06:56:00,
2013-07-26 02:00:00,69.5,61.6,29.89,SSW,206,0.0,0.0,76,0.00,,FEW250,0.00,VWS V14.01,2013-07-26 07:00:00,
2013-07-26 02:01:00,69.4,61.5,29.89,North,360,0.0,0.0,76,0.00,,CLR,0.00,VWS V14.01,2013-07-26 07:01:00,
2013-07-26 02:05:00,69.4,61.5,29.89,North,360,0.0,0.0,76,0.00,,FEW250,0.00,VWS V14.01,2013-07-26 07:05:00,
2013-07-26 02:06:00,69.4,61.5,29.89,North,360,0.0,0.0,76,0.00,,CLR,0.00,VWS V14.01,2013-07-26 07:06:00,
2013-07-26 02:10:00,69.3,61.4,29.89,North,360,0.0,0.0,76,0.00,,FEW250,0.00,VWS V14.01,2013-07-26 07:10:00,
2013-07-26 02:12:00,69.3,61.4,29.89,North,360,0.0,0.0,76,0.00,,CLR,0.00,VWS V14.01,2013-07-26 07:12:00,
2013-07-26 02:15:00,69.2,61.3,29.89,North,360,0.0,0.0,76,0.00,,FEW250,0.00,VWS V14.01,2013-07-26 07:15:00,
2013-07-26 02:17:00,69.2,61.3,29.89,North,360,0.0,0.0,76,0.00,,CLR,0.00,VWS V14.01,2013-07-26 07:17:00,
2013-07-26 02:20:00,69.1,61.2,29.89,South,187,0.0,0.0,76,0.00,,FEW250,0.00,VWS V14.01,2013-07-26 07:20:00,
2013-07-26 02:22:00,69.1,61.6,29.89,South,187,0.0,0.0,77,0.00,,CLR,0.00,VWS V14.01,2013-07-26 07:22:00,
2013-07-26 02:25:00,69.0,61.1,29.89,South,187,0.0,0.0,76,0.00,,FEW250,0.00,VWS V14.01,2013-07-26 07:25:00,
2013-07-26 02:27:00,68.9,61.4,29.89,South,187,0.0,0.0,77,0.00,,CLR,0.00,VWS V14.01,2013-07-26 07:27:00,
2013-07-26 02:30:00,68.9,61.4,29.89,North,360,0.0,0.0,77,0.00,,FEW250,0.00,VWS V14.01,2013-07-26 07:30:00,
2013-07-26 02:32:00,68.8,61.3,29.90,North,360,0.0,0.0,77,0.00,,CLR,0.00,VWS V14.01,2013-07-26 07:32:00,
2013-07-26 02:35:00,68.8,61.3,29.90,North,360,0.0,0.0,77,0.00,,FEW250,0.00,VWS V14.01,2013-07-26 07:35:00,
2013-07-26 02:37:00,68.7,61.2,29.90,North,360,0.0,0.0,77,0.00,,CLR,0.00,VWS V14.01,2013-07-26 07:37:00,
2013-07-26 02:40:00,68.6,61.5,29.90,North,360,0.0,0.0,78,0.00,,FEW250,0.00,VWS V14.01,2013-07-26 07:40:00,
2013-07-26 02:42:00,68.5,61.4,29.90,North,360,0.0,0.0,78,0.00,,CLR,0.00,VWS V14.01,2013-07-26 07:42:00,
2013-07-26 02:45:00,68.5,61.4,29.90,South,186,0.0,0.0,78,0.00,,FEW250,0.00,VWS V14.01,2013-07-26 07:45:00,
2013-07-26 02:47:00,68.4,61.3,29.89,North,360,0.0,6.0,78,0.00,,CLR,0.00,VWS V14.01,2013-07-26 07:47:00,
2013-07-26 02:50:00,68.3,61.2,29.90,SSW,193,0.0,6.0,78,0.00,,FEW250,0.00,VWS V14.01,2013-07-26 07:50:00,
2013-07-26 02:52:00,68.3,61.2,29.90,North,360,0.0,3.0,78,0.00,,CLR,0.00,VWS V14.01,2013-07-26 07:52:00,
2013-07-26 02:55:00,68.3,61.5,29.90,SSE,168,0.0,4.0,79,0.00,,FEW250,0.00,VWS V14.01,2013-07-26 07:55:00,
2013-07-26 02:57:00,68.2,61.5,29.90,North,360,6.0,8.0,79,0.00,,CLR,0.00,VWS V14.01,2013-07-26 07:57:00,
2013-07-26 03:00:00,68.2,61.5,29.90,North,360,2.0,9.0,79,0.00,,FEW250,0.00,VWS V14.01,2013-07-26 08:00:00,
2013-07-26 03:02:00,68.2,61.5,29.90,SSW,211,6.0,9.0,79,0.00,,FEW250,0.00,VWS V14.01,2013-07-26 08:02:00,
2013-07-26 03:05:00,68.2,61.5,29.90,North,360,3.0,9.0,79,0.00,,FEW250,0.00,VWS V14.01,2013-07-26 08:05:00,
2013-07-26 03:07:00,68.2,61.5,29.90,North,360,0.0,9.0,79,0.00,,FEW250,0.00,VWS V14.01,2013-07-26 08:07:00,
2013-07-26 03:10:00,68.1,61.3,29.90,North,360,3.0,9.0,79,0.00,,FEW250,0.00,VWS V14.01,2013-07-26 08:10:00,
2013-07-26 03:12:00,68.1,61.3,29.90,North,360,0.0,5.0,79,0.00,,FEW250,0.00,VWS V14.01,2013-07-26 08:12:00,
2013-07-26 03:15:00,68.1,61.3,29.89,SSW,207,0.0,4.0,79,0.00,,FEW250,0.00,VWS V14.01,2013-07-26 08:15:00,
2013-07-26 03:18:00,68.1,61.3,29.89,South,180,0.0,0.0,79,0.00,,FEW250,0.00,VWS V14.01,2013-07-26 08:18:00,
2013-07-26 03:20:00,68.1,61.3,29.89,SSW,200,0.0,0.0,79,0.00,,FEW250,0.00,VWS V14.01,2013-07-26 08:20:00,
2013-07-26 03:23:00,68.1,61.3,29.89,North,360,0.0,0.0,79,0.00,,FEW250,0.00,VWS V14.01,2013-07-26 08:23:00,
2013-07-26 03:25:00,68.1,61.3,29.89,SSW,196,0.0,0.0,79,0.00,,FEW250,0.00,VWS V14.01,2013-07-26 08:25:00,
2013-07-26 03:28:00,68.0,61.2,29.89,North,360,0.0,6.0,79,0.00,,FEW250,0.00,VWS V14.01,2013-07-26 08:28:00,
2013-07-26 03:30:00,68.0,61.2,29.89,North,360,0.0,6.0,79,0.00,,FEW250,0.00,VWS V14.01,2013-07-26 08:30:00,
2013-07-26 03:33:00,68.0,61.2,29.89,North,360,1.0,6.0,79,0.00,,FEW250,0.00,VWS V14.01,2013-07-26 08:33:00,
2013-07-26 03:35:00,68.0,61.2,29.89,South,184,0.0,8.0,79,0.00,,FEW250,0.00,VWS V14.01,2013-07-26 08:35:00,
2013-07-26 03:38:00,68.0,61.2,29.89,North,360,0.0,7.0,79,0.00,,FEW250,0.00,VWS V14.01,2013-07-26 08:38:00,
2013-07-26 03:40:00,68.0,61.2,29.89,North,360,0.0,7.0,79,0.00,,FEW250,0.00,VWS V14.01,2013-07-26 08:40:00,
2013-07-26 03:43:00,68.0,61.2,29.89,North,360,8.0,8.0,79,0.00,,FEW250,0.00,VWS V14.01,2013-07-26 08:43:00,
2013-07-26 03:45:00,68.0,61.2,29.89,North,360,5.0,8.0,79,0.00,,FEW250,0.00,VWS V14.01,2013-07-26 08:45:00,
2013-07-26 03:48:00,68.0,61.2,29.89,North,360,0.0,5.0,79,0.00,,FEW250,0.00,VWS V14.01,2013-07-26 08:48:00,
2013-07-26 03:50:00,68.0,61.2,29.88,North,360,0.0,3.0,79,0.00,,FEW250,0.00,VWS V14.01,2013-07-26 08:50:00,
2013-07-26 03:53:00,68.0,61.2,29.88,SW,227,4.0,5.0,79,0.00,,FEW250,0.00,VWS V14.01,2013-07-26 08:53:00,
2013-07-26 03:55:00,68.0,61.2,29.88,North,360,4.0,7.0,79,0.00,,FEW250,0.00,VWS V14.01,2013-07-26 08:55:00,
2013-07-26 03:58:00,68.0,61.2,29.88,North,360,3.0,7.0,79,0.00,,FEW250,0.00,VWS V14.01,2013-07-26 08:58:00,
2013-07-26 04:00:00,68.0,60.9,29.88,SSW,199,0.0,7.0,78,0.00,,CLR,0.00,VWS V14.01,2013-07-26 09:00:00,
2013-07-26 04:03:00,68.0,60.9,29.88,North,360,4.0,8.0,78,0.00,,FEW250,0.00,VWS V14.01,2013-07-26 09:03:00,
2013-07-26 04:05:00,68.1,61.0,29.88,North,360,5.0,8.0,78,0.00,,CLR,0.00,VWS V14.01,2013-07-26 09:05:00,
2013-07-26 04:08:00,68.1,61.0,29.88,North,360,3.0,7.0,78,0.00,,FEW250,0.00,VWS V14.01,2013-07-26 09:08:00,
2013-07-26 04:10:00,68.1,61.0,29.88,SSE,163,4.0,7.0,78,0.00,,CLR,0.00,VWS V14.01,2013-07-26 09:10:00,
2013-07-26 04:13:00,68.0,60.9,29.88,North,360,4.0,8.0,78,0.00,,FEW250,0.00,VWS V14.01,2013-07-26 09:13:00,
2013-07-26 04:15:00,68.0,60.9,29.88,North,360,3.0,8.0,78,0.00,,CLR,0.00,VWS V14.01,2013-07-26 09:15:00,
2013-07-26 04:18:00,68.0,60.9,29.88,North,360,0.0,9.0,78,0.00,,FEW250,0.00,VWS V14.01,2013-07-26 09:18:00,
2013-07-26 04:20:00,68.0,61.2,29.88,North,360,0.0,7.0,79,0.00,,FEW250,0.00,VWS V14.01,2013-07-26 09:20:00,
2013-07-26 04:24:00,67.9,61.2,29.88,North,360,0.0,6.0,79,0.00,,FEW250,0.00,VWS V14.01,2013-07-26 09:24:00,
2013-07-26 04:25:00,67.9,61.2,29.88,North,360,0.0,6.0,79,0.00,,FEW250,0.00,VWS V14.01,2013-07-26 09:25:00,
2013-07-26 04:29:00,67.9,61.2,29.88,South,178,0.0,0.0,79,0.00,,FEW250,0.00,VWS V14.01,2013-07-26 09:29:00,
2013-07-26 04:30:00,67.9,61.2,29.88,SSW,211,7.0,7.0,79,0.00,,FEW250,0.00,VWS V14.01,2013-07-26 09:30:00,
2013-07-26 04:34:00,67.8,61.1,29.88,South,169,0.0,7.0,79,0.00,,FEW250,0.00,VWS V14.01,2013-07-26 09:34:00,
2013-07-26 04:35:00,67.8,61.1,29.88,South,170,0.0,7.0,79,0.00,,FEW250,0.00,VWS V14.01,2013-07-26 09:35:00,
2013-07-26 04:39:00,67.7,61.0,29.88,North,360,0.0,7.0,79,0.00,,FEW250,0.00,VWS V14.01,2013-07-26 09:39:00,
2013-07-26 04:40:00,67.7,61.0,29.88,North,360,0.0,7.0,79,0.00,,FEW250,0.00,VWS V14.01,2013-07-26 09:40:00,
2013-07-26 04:44:00,67.7,61.0,29.88,North,360,0.0,4.0,79,0.00,,FEW250,0.00,VWS V14.01,2013-07-26 09:44:00,
2013-07-26 04:45:00,67.6,60.9,29.88,North,360,0.0,4.0,79,0.00,,FEW250,0.00,VWS V14.01,2013-07-26 09:45:00,
2013-07-26 04:49:00,67.5,60.8,29.88,North,360,0.0,6.0,79,0.00,,FEW250,0.00,VWS V14.01,2013-07-26 09:49:00,
2013-07-26 04:50:00,67.5,60.8,29.88,North,360,0.0,6.0,79,0.00,,FEW250,0.00,VWS V14.01,2013-07-26 09:50:00,
2013-07-26 04:54:00,67.3,60.9,29.88,North,360,0.0,5.0,80,0.00,,FEW250,0.00,VWS V14.01,2013-07-26 09:54:00,
2013-07-26 04:55:00,67.3,60.9,29.88,North,360,0.0,5.0,80,0.00,,FEW250,0.00,VWS V14.01,2013-07-26 09:55:00,
2013-07-26 04:59:00,67.2,60.8,29.88,South,191,4.0,8.0,80,0.00,,FEW250,0.00,VWS V14.01,2013-07-26 09:59:00,
2013-07-26 05:00:00,67.2,60.8,29.88,North,360,2.0,8.0,80,0.00,,FEW250,0.00,VWS V14.01,2013-07-26 10:00:00,
2013-07-26 05:04:00,67.2,60.8,29.88,North,360,0.0,7.0,80,0.00,,BKN250,0.00,VWS V14.01,2013-07-26 10:04:00,
2013-07-26 05:05:00,67.2,60.8,29.88,North,360,0.0,7.0,80,0.00,,FEW250,0.00,VWS V14.01,2013-07-26 10:05:00,
2013-07-26 05:09:00,67.2,60.8,29.88,North,360,5.0,8.0,80,0.00,,BKN250,0.00,VWS V14.01,2013-07-26 10:09:00,
2013-07-26 05:10:00,67.2,60.8,29.88,North,360,5.0,8.0,80,0.00,,FEW250,0.00,VWS V14.01,2013-07-26 10:10:00,
2013-07-26 05:14:00,67.1,60.7,29.88,North,360,0.0,6.0,80,0.00,,BKN250,0.00,VWS V14.01,2013-07-26 10:14:00,
2013-07-26 05:15:00,67.1,60.7,29.88,North,360,0.0,6.0,80,0.00,,FEW250,0.00,VWS V14.01,2013-07-26 10:15:00,
2013-07-26 05:19:00,67.0,60.6,29.88,North,360,2.0,7.0,80,0.00,,BKN250,0.00,VWS V14.01,2013-07-26 10:19:00,
2013-07-26 05:20:00,67.0,60.6,29.88,North,360,2.0,7.0,80,0.00,,FEW250,0.00,VWS V14.01,2013-07-26 10:20:00,
2013-07-26 05:24:00,67.0,60.6,29.88,North,360,8.0,8.0,80,0.00,,BKN250,0.00,VWS V14.01,2013-07-26 10:24:00,
2013-07-26 05:25:00,67.0,60.6,29.88,North,360,8.0,8.0,80,0.00,,FEW250,0.00,VWS V14.01,2013-07-26 10:25:00,
2013-07-26 05:29:00,66.8,60.4,29.88,North,360,5.0,7.0,80,0.00,,BKN250,0.00,VWS V14.01,2013-07-26 10:29:00,
2013-07-26 05:30:00,66.8,60.4,29.88,North,360,5.0,7.0,80,0.00,,FEW250,0.00,VWS V14.01,2013-07-26 10:30:00,
2013-07-26 05:34:00,66.8,60.4,29.88,North,360,0.0,11.0,80,0.00,,BKN250,0.00,VWS V14.01,2013-07-26 10:34:00,
2013-07-26 05:35:00,66.8,60.4,29.88,North,360,0.0,11.0,80,0.00,,FEW250,0.00,VWS V14.01,2013-07-26 10:35:00,
2013-07-26 05:39:00,66.8,60.8,29.88,SSW,194,8.0,10.0,81,0.00,,BKN250,0.00,VWS V14.01,2013-07-26 10:39:00,
2013-07-26 05:40:00,66.8,60.8,29.88,SSW,194,8.0,10.0,81,0.00,,FEW250,0.00,VWS V14.01,2013-07-26 10:40:00,
2013-07-26 05:44:00,66.7,60.7,29.88,North,360,2.0,9.0,81,0.00,,BKN250,0.00,VWS V14.01,2013-07-26 10:44:00,
2013-07-26 05:45:00,66.7,60.7,29.88,North,360,2.0,9.0,81,0.00,,FEW250,0.00,VWS V14.01,2013-07-26 10:45:00,
2013-07-26 05:49:00,66.7,60.7,29.88,North,360,0.0,6.0,81,0.00,,BKN250,0.00,VWS V14.01,2013-07-26 10:49:00,
2013-07-26 05:50:00,66.7,60.7,29.88,North,360,0.0,6.0,81,0.00,,FEW250,0.00,VWS V14.01,2013-07-26 10:50:00,
2013-07-26 05:54:00,66.5,60.5,29.89,North,360,0.0,2.0,81,0.00,,BKN250,0.00,VWS V14.01,2013-07-26 10:54:00,
2013-07-26 05:55:00,66.5,60.5,29.89,North,360,0.0,2.0,81,0.00,,FEW250,0.00,VWS V14.01,2013-07-26 10:55:00,
2013-07-26 05:59:00,66.4,60.4,29.89,North,360,0.0,0.0,81,0.00,,BKN250,0.00,VWS V14.01,2013-07-26 10:59:00,
2013-07-26 06:00:00,66.4,60.4,29.89,North,360,0.0,0.0,81,0.00,,FEW250,0.00,VWS V14.01,2013-07-26 11:00:00,
2013-07-26 06:04:00,66.3,60.3,29.89,North,360,0.0,7.0,81,0.00,,BKN250,0.00,VWS V14.01,2013-07-26 11:04:00,
2013-07-26 06:05:00,66.3,60.3,29.89,North,360,0.0,7.0,81,0.00,,FEW250,0.00,VWS V14.01,2013-07-26 11:05:00,
2013-07-26 06:09:00,66.2,60.5,29.89,North,360,4.0,7.0,82,0.00,,BKN250,0.00,VWS V14.01,2013-07-26 11:09:00,
2013-07-26 06:10:00,66.2,60.5,29.89,North,360,4.0,7.0,82,0.00,,FEW250,0.00,VWS V14.01,2013-07-26 11:10:00,
2013-07-26 06:14:00,66.3,60.3,29.89,North,360,0.0,9.0,81,0.00,,BKN250,0.00,VWS V14.01,2013-07-26 11:14:00,
2013-07-26 06:15:00,66.3,60.3,29.89,North,360,0.0,9.0,81,0.00,,FEW250,0.00,VWS V14.01,2013-07-26 11:15:00,
2013-07-26 06:19:00,66.4,60.4,29.89,North,360,0.0,8.0,81,0.00,,BKN250,0.00,VWS V14.01,2013-07-26 11:19:00,
2013-07-26 06:20:00,66.4,60.4,29.89,North,360,0.0,8.0,81,0.00,,FEW250,0.00,VWS V14.01,2013-07-26 11:20:00,
2013-07-26 06:24:00,66.6,60.6,29.89,North,360,4.0,10.0,81,0.00,,BKN250,0.00,VWS V14.01,2013-07-26 11:24:00,
2013-07-26 06:25:00,66.6,60.6,29.89,North,360,4.0,10.0,81,0.00,,FEW250,0.00,VWS V14.01,2013-07-26 11:25:00,
2013-07-26 06:29:00,66.6,60.6,29.89,North,360,7.0,8.0,81,0.00,,BKN250,0.00,VWS V14.01,2013-07-26 11:29:00,
2013-07-26 06:30:00,66.6,60.6,29.89,North,360,7.0,8.0,81,0.00,,FEW250,0.00,VWS V14.01,2013-07-26 11:30:00,
2013-07-26 06:34:00,66.6,60.6,29.89,SSE,164,0.0,7.0,81,0.00,,BKN250,0.00,VWS V14.01,2013-07-26 11:34:00,
2013-07-26 06:35:00,66.6,60.6,29.89,SSE,164,0.0,7.0,81,0.00,,FEW250,0.00,VWS V14.01,2013-07-26 11:35:00,
2013-07-26 06:39:00,66.7,60.7,29.89,North,360,0.0,0.0,81,0.00,,BKN250,0.00,VWS V14.01,2013-07-26 11:39:00,
2013-07-26 06:40:00,66.7,60.7,29.89,North,360,0.0,0.0,81,0.00,,FEW250,0.00,VWS V14.01,2013-07-26 11:40:00,
2013-07-26 06:44:00,66.7,60.7,29.89,North,360,0.0,8.0,81,0.00,,BKN250,0.00,VWS V14.01,2013-07-26 11:44:00,
2013-07-26 06:45:00,66.7,60.7,29.89,North,360,0.0,8.0,81,0.00,,FEW250,0.00,VWS V14.01,2013-07-26 11:45:00,
2013-07-26 06:49:00,66.8,60.8,29.90,North,360,0.0,9.0,81,0.00,,BKN250,0.00,VWS V14.01,2013-07-26 11:49:00,
2013-07-26 06:50:00,66.8,60.8,29.90,North,360,0.0,9.0,81,0.00,,FEW250,0.00,VWS V14.01,2013-07-26 11:50:00,
2013-07-26 06:54:00,66.9,60.9,29.90,South,177,0.0,0.0,81,0.00,,BKN250,0.00,VWS V14.01,2013-07-26 11:54:00,
2013-07-26 06:55:00,66.9,60.9,29.90,South,177,0.0,0.0,81,0.00,,FEW250,0.00,VWS V14.01,2013-07-26 11:55:00,
2013-07-26 06:59:00,67.0,61.0,29.90,SSW,201,0.0,4.0,81,0.00,,BKN250,0.00,VWS V14.01,2013-07-26 11:59:00,
2013-07-26 07:00:00,67.0,61.0,29.90,SSW,201,0.0,4.0,81,0.00,,FEW250,0.00,VWS V14.01,2013-07-26 12:00:00,
2013-07-26 07:04:00,67.1,61.1,29.89,South,176,0.0,0.0,81,0.00,,BKN250,0.00,VWS V14.01,2013-07-26 12:04:00,
2013-07-26 07:05:00,67.1,61.1,29.89,South,176,0.0,0.0,81,0.00,,FEW250,0.00,VWS V14.01,2013-07-26 12:05:00,
2013-07-26 07:10:00,67.2,61.2,29.89,North,360,0.0,6.0,81,0.00,,BKN250,0.00,VWS V14.01,2013-07-26 12:10:00,
2013-07-26 07:15:00,67.4,61.4,29.89,SSW,196,0.0,6.0,81,0.00,,BKN250,0.00,VWS V14.01,2013-07-26 12:15:00,
2013-07-26 07:20:00,67.6,61.6,29.89,South,184,0.0,0.0,81,0.00,,BKN250,0.00,VWS V14.01,2013-07-26 12:20:00,
2013-07-26 07:25:00,67.7,61.7,29.89,North,360,0.0,4.0,81,0.00,,BKN250,0.00,VWS V14.01,2013-07-26 12:25:00,
2013-07-26 07:30:00,67.8,61.8,29.89,SSW,208,0.0,8.0,81,0.00,,BKN250,0.00,VWS V14.01,2013-07-26 12:30:00,
2013-07-26 07:35:00,68.0,62.0,29.89,North,360,0.0,0.0,81,0.00,,BKN250,0.00,VWS V14.01,2013-07-26 12:35:00,
2013-07-26 07:40:00,68.1,62.1,29.89,SW,222,0.0,7.0,81,0.00,,BKN250,0.00,VWS V14.01,2013-07-26 12:40:00,
2013-07-26 07:45:00,68.2,62.2,29.89,North,360,0.0,7.0,81,0.00,,BKN250,0.00,VWS V14.01,2013-07-26 12:45:00,
2013-07-26 07:50:00,68.1,62.1,29.89,North,360,0.0,5.0,81,0.00,,BKN250,0.00,VWS V14.01,2013-07-26 12:50:00,
2013-07-26 07:55:00,68.2,62.2,29.89,North,360,3.0,8.0,81,0.00,,BKN250,0.00,VWS V14.01,2013-07-26 12:55:00,
2013-07-26 08:00:00,68.4,62.3,29.89,North,360,7.0,9.0,81,0.00,,BKN250,0.00,VWS V14.01,2013-07-26 13:00:00,
2013-07-26 08:05:00,68.7,62.6,29.89,North,360,8.0,11.0,81,0.00,,BKN250,0.00,VWS V14.01,2013-07-26 13:05:00,
2013-07-26 08:10:00,68.7,62.6,29.89,North,360,7.0,11.0,81,0.00,,FEW250,0.00,VWS V14.01,2013-07-26 13:10:00,
2013-07-26 08:11:00,68.7,62.6,29.89,North,360,6.0,10.0,81,0.00,,BKN250,0.00,VWS V14.01,2013-07-26 13:11:00,
2013-07-26 08:15:00,68.8,62.4,29.89,North,360,6.0,10.0,80,0.00,,FEW250,0.00,VWS V14.01,2013-07-26 13:15:00,
2013-07-26 08:16:00,68.8,62.4,29.88,South,171,0.0,10.0,80,0.00,,BKN250,0.00,VWS V14.01,2013-07-26 13:16:00,
2013-07-26 08:20:00,68.8,62.4,29.88,North,360,5.0,10.0,80,0.00,,FEW250,0.00,VWS V14.01,2013-07-26 13:20:00,
2013-07-26 08:21:00,68.8,62.7,29.88,North,360,0.0,10.0,81,0.00,,BKN250,0.00,VWS V14.01,2013-07-26 13:21:00,
2013-07-26 08:25:00,68.8,62.4,29.88,North,360,8.0,12.0,80,0.00,,FEW250,0.00,VWS V14.01,2013-07-26 13:25:00,
2013-07-26 08:26:00,68.9,62.5,29.89,North,360,4.0,12.0,80,0.00,,BKN250,0.00,VWS V14.01,2013-07-26 13:26:00,
2013-07-26 08:30:00,69.0,62.9,29.88,North,360,7.0,12.0,81,0.00,,FEW250,0.00,VWS V14.01,2013-07-26 13:30:00,
2013-07-26 08:31:00,69.1,62.7,29.88,North,360,3.0,12.0,80,0.00,,BKN250,0.00,VWS V14.01,2013-07-26 13:31:00,
2013-07-26 08:35:00,69.3,62.9,29.88,SSW,201,4.0,14.0,80,0.00,,FEW250,0.00,VWS V14.01,2013-07-26 13:35:00,
2013-07-26 08:36:00,69.4,63.0,29.88,North,360,10.0,14.0,80,0.00,,BKN250,0.00,VWS V14.01,2013-07-26 13:36:00,
2013-07-26 08:40:00,69.5,63.1,29.88,North,360,6.0,12.0,80,0.00,,FEW250,0.00,VWS V14.01,2013-07-26 13:40:00,
2013-07-26 08:41:00,69.6,63.2,29.88,North,360,8.0,12.0,80,0.00,,BKN250,0.00,VWS V14.01,2013-07-26 13:41:00,
2013-07-26 08:45:00,69.6,63.2,29.88,North,360,4.0,14.0,80,0.00,,FEW250,0.00,VWS V14.01,2013-07-26 13:45:00,
2013-07-26 08:46:00,69.7,63.3,29.88,North,360,4.0,14.0,80,0.00,,BKN250,0.00,VWS V14.01,2013-07-26 13:46:00,
2013-07-26 08:50:00,69.8,63.4,29.88,North,360,9.0,11.0,80,0.00,,FEW250,0.00,VWS V14.01,2013-07-26 13:50:00,
2013-07-26 08:51:00,69.9,63.1,29.88,SW,214,8.0,11.0,79,0.00,,BKN250,0.00,VWS V14.01,2013-07-26 13:51:00,
2013-07-26 08:55:00,70.0,63.2,29.88,North,360,8.0,12.0,79,0.00,,FEW250,0.00,VWS V14.01,2013-07-26 13:55:00,
2013-07-26 08:57:00,70.0,63.2,29.88,North,360,9.0,13.0,79,0.00,,BKN250,0.00,VWS V14.01,2013-07-26 13:57:00,
2013-07-26 09:00:00,70.0,63.2,29.88,North,360,4.0,13.0,79,0.00,,FEW250,0.00,VWS V14.01,2013-07-26 14:00:00,
2013-07-26 09:02:00,70.2,63.4,29.88,North,360,3.0,8.0,79,0.00,,OVC250,0.00,VWS V14.01,2013-07-26 14:02:00,
2013-07-26 09:05:00,70.4,63.6,29.87,North,360,8.0,9.0,79,0.00,,FEW250,0.00,VWS V14.01,2013-07-26 14:05:00,
2013-07-26 09:07:00,70.6,63.4,29.87,SSE,165,10.0,10.0,78,0.00,,OVC250,0.00,VWS V14.01,2013-07-26 14:07:00,
2013-07-26 09:10:00,70.6,63.4,29.87,North,360,8.0,15.0,78,0.00,,FEW250,0.00,VWS V14.01,2013-07-26 14:10:00,
2013-07-26 09:12:00,70.6,63.0,29.87,North,360,9.0,13.0,77,0.00,,OVC250,0.00,VWS V14.01,2013-07-26 14:12:00,
2013-07-26 09:15:00,70.6,63.4,29.87,SW,230,5.0,12.0,78,0.00,,FEW250,0.00,VWS V14.01,2013-07-26 14:15:00,
2013-07-26 09:17:00,70.7,63.5,29.87,South,173,4.0,10.0,78,0.00,,OVC250,0.00,VWS V14.01,2013-07-26 14:17:00,
2013-07-26 09:20:00,70.8,63.2,29.87,SSE,167,2.0,12.0,77,0.00,,FEW250,0.00,VWS V14.01,2013-07-26 14:20:00,
2013-07-26 09:22:00,70.9,63.3,29.87,SSE,166,7.0,11.0,77,0.00,,OVC250,0.00,VWS V14.01,2013-07-26 14:22:00,
2013-07-26 09:25:00,71.0,63.4,29.87,North,360,10.0,11.0,77,0.00,,FEW250,0.00,VWS V14.01,2013-07-26 14:25:00,
2013-07-26 09:27:00,71.1,63.5,29.87,North,360,10.0,16.0,77,0.00,,OVC250,0.00,VWS V14.01,2013-07-26 14:27:00,
2013-07-26 09:30:00,71.2,63.6,29.87,SSE,158,7.0,13.0,77,0.00,,FEW250,0.00,VWS V14.01,2013-07-26 14:30:00,
2013-07-26 09:32:00,71.4,63.8,29.87,South,169,6.0,10.0,77,0.00,,OVC250,0.00,VWS V14.01,2013-07-26 14:32:00,
2013-07-26 09:35:00,71.5,63.5,29.86,North,360,6.0,16.0,76,0.00,,FEW250,0.00,VWS V14.01,2013-07-26 14:35:00,
2013-07-26 09:37:00,71.5,63.9,29.86,North,360,7.0,15.0,77,0.00,,OVC250,0.00,VWS V14.01,2013-07-26 14:37:00,
2013-07-26 09:40:00,71.5,63.9,29.86,North,360,3.0,15.0,77,0.00,,FEW250,0.00,VWS V14.01,2013-07-26 14:40:00,
2013-07-26 09:42:00,71.6,64.0,29.86,SSE,168,3.0,14.0,77,0.00,,OVC250,0.00,VWS V14.01,2013-07-26 14:42:00,
2013-07-26 09:45:00,71.6,64.0,29.86,North,360,9.0,14.0,77,0.00,,FEW250,0.00,VWS V14.01,2013-07-26 14:45:00,
2013-07-26 09:47:00,71.5,63.9,29.86,North,360,11.0,15.0,77,0.00,,OVC250,0.00,VWS V14.01,2013-07-26 14:47:00,
2013-07-26 09:50:00,71.5,63.9,29.86,WSW,244,13.0,17.0,77,0.00,,FEW250,0.00,VWS V14.01,2013-07-26 14:50:00,
2013-07-26 09:52:00,71.3,63.7,29.86,WSW,247,11.0,18.0,77,0.00,,OVC250,0.00,VWS V14.01,2013-07-26 14:52:00,
2013-07-26 09:55:00,71.2,64.0,29.86,SSE,166,5.0,18.0,78,0.00,,FEW250,0.00,VWS V14.01,2013-07-26 14:55:00,
2013-07-26 09:57:00,71.1,64.3,29.86,North,360,5.0,17.0,79,0.00,,OVC250,0.00,VWS V14.01,2013-07-26 14:57:00,
2013-07-26 10:00:00,71.1,64.3,29.86,North,360,10.0,17.0,79,0.00,,FEW250,0.00,VWS V14.01,2013-07-26 15:00:00,
2013-07-26 10:02:00,71.1,64.3,29.86,South,169,6.0,13.0,79,0.00,,OVC085,0.00,VWS V14.01,2013-07-26 15:02:00,
2013-07-26 10:05:00,71.1,64.3,29.86,South,170,12.0,14.0,79,0.00,,FEW250,0.00,VWS V14.01,2013-07-26 15:05:00,
2013-07-26 10:08:00,71.0,64.2,29.86,North,360,11.0,16.0,79,0.00,,OVC085,0.00,VWS V14.01,2013-07-26 15:08:00,
2013-07-26 10:10:00,70.8,64.0,29.86,North,360,4.0,16.0,79,0.00,,FEW250,0.00,VWS V14.01,2013-07-26 15:10:00,
2013-07-26 10:13:00,70.8,64.0,29.85,North,360,8.0,22.0,79,0.00,,OVC085,0.00,VWS V14.01,2013-07-26 15:13:00,
2013-07-26 10:15:00,70.8,64.0,29.85,North,360,2.0,22.0,79,0.00,,FEW250,0.00,VWS V14.01,2013-07-26 15:15:00,
2013-07-26 10:18:00,70.7,63.9,29.85,North,360,10.0,18.0,79,0.00,,OVC085,0.00,VWS V14.01,2013-07-26 15:18:00,
2013-07-26 10:20:00,70.7,64.2,29.85,North,360,11.0,18.0,80,0.00,,FEW250,0.00,VWS V14.01,2013-07-26 15:20:00,
2013-07-26 10:23:00,70.9,64.4,29.86,SW,220,7.0,13.0,80,0.00,,OVC085,0.00,VWS V14.01,2013-07-26 15:23:00,
2013-07-26 10:25:00,71.0,64.5,29.85,North,360,9.0,13.0,80,0.00,,FEW250,0.00,VWS V14.01,2013-07-26 15:25:00,
2013-07-26 10:28:00,70.9,64.1,29.86,SSE,163,8.0,19.0,79,0.00,,OVC085,0.00,VWS V14.01,2013-07-26 15:28:00,
2013-07-26 10:30:00,70.8,64.0,29.85,SSE,167,8.0,19.0,79,0.00,,FEW250,0.00,VWS V14.01,2013-07-26 15:30:00,
2013-07-26 10:33:00,70.9,64.1,29.85,North,360,8.0,17.0,79,0.00,,OVC085,0.00,VWS V14.01,2013-07-26 15:33:00,
2013-07-26 10:35:00,70.9,64.1,29.85,North,360,0.0,17.0,79,0.00,,FEW250,0.00,VWS V14.01,2013-07-26 15:35:00,
2013-07-26 10:38:00,71.0,64.2,29.85,North,360,12.0,17.0,79,0.00,,OVC085,0.00,VWS V14.01,2013-07-26 15:38:00,
2013-07-26 10:40:00,71.0,64.2,29.86,North,360,17.0,19.0,79,0.00,,FEW250,0.00,VWS V14.01,2013-07-26 15:40:00,
2013-07-26 10:43:00,70.8,64.0,29.86,North,360,3.0,19.0,79,0.00,,OVC085,0.00,VWS V14.01,2013-07-26 15:43:00,
2013-07-26 10:45:00,70.8,64.0,29.86,North,360,4.0,13.0,79,0.00,,FEW250,0.00,VWS V14.01,2013-07-26 15:45:00,
2013-07-26 10:48:00,70.8,64.3,29.85,North,360,16.0,16.0,80,0.00,,OVC085,0.00,VWS V14.01,2013-07-26 15:48:00,
2013-07-26 10:50:00,70.7,63.9,29.85,North,360,11.0,16.0,79,0.00,,FEW250,0.00,VWS V14.01,2013-07-26 15:50:00,
2013-07-26 10:53:00,70.1,64.4,29.85,North,360,1.0,13.0,82,0.01,,OVC085,0.01,VWS V14.01,2013-07-26 15:53:00,
2013-07-26 10:55:00,70.0,64.3,29.85,North,360,10.0,13.0,82,0.01,,FEW250,0.01,VWS V14.01,2013-07-26 15:55:00,
2013-07-26 10:58:00,69.5,64.1,29.85,North,360,15.0,15.0,83,0.01,,OVC085,0.01,VWS V14.01,2013-07-26 15:58:00,
2013-07-26 11:00:00,69.3,63.9,29.85,North,360,19.0,19.0,83,0.02,,FEW250,0.02,VWS V14.01,2013-07-26 16:00:00,
2013-07-26 11:03:00,69.0,64.0,29.86,North,360,13.0,19.0,84,0.02,,-RA,0.02,VWS V14.01,2013-07-26 16:03:00,
2013-07-26 11:05:00,68.9,63.9,29.86,North,360,15.0,16.0,84,0.02,,FEW250,0.02,VWS V14.01,2013-07-26 16:05:00,
2013-07-26 11:08:00,68.4,63.7,29.86,SSE,152,7.0,21.0,85,0.03,,-RA,0.03,VWS V14.01,2013-07-26 16:08:00,
2013-07-26 11:10:00,68.3,63.6,29.86,North,360,9.0,21.0,85,0.03,,FEW250,0.03,VWS V14.01,2013-07-26 16:10:00,
2013-07-26 11:14:00,67.8,63.5,29.86,North,360,4.0,15.0,86,0.04,,-RA,0.04,VWS V14.01,2013-07-26 16:14:00,
2013-07-26 11:15:00,67.7,63.4,29.86,North,360,11.0,15.0,86,0.04,,FEW250,0.04,VWS V14.01,2013-07-26 16:15:00,
2013-07-26 11:19:00,67.2,63.2,29.86,SSW,211,3.0,21.0,87,0.05,,-RA,0.05,VWS V14.01,2013-07-26 16:19:00,
2013-07-26 11:20:00,67.2,63.2,29.86,North,360,17.0,22.0,87,0.05,,FEW250,0.05,VWS V14.01,2013-07-26 16:20:00,
2013-07-26 11:24:00,66.6,63.3,29.86,South,172,12.0,22.0,89,0.07,,-RA,0.07,VWS V14.01,2013-07-26 16:24:00,
2013-07-26 11:25:00,66.5,63.2,29.86,North,360,9.0,22.0,89,0.08,,FEW250,0.08,VWS V14.01,2013-07-26 16:25:00,
2013-07-26 11:29:00,66.1,63.4,29.86,SSE,167,2.0,18.0,91,0.10,,-RA,0.10,VWS V14.01,2013-07-26 16:29:00,
2013-07-26 11:30:00,66.1,63.4,29.86,WSW,248,4.0,18.0,91,0.10,,FEW250,0.10,VWS V14.01,2013-07-26 16:30:00,
2013-07-26 11:34:00,65.7,63.3,29.85,SSE,161,11.0,19.0,92,0.13,,-RA,0.13,VWS V14.01,2013-07-26 16:34:00,
2013-07-26 11:35:00,65.7,63.3,29.85,North,360,10.0,19.0,92,0.14,,FEW250,0.14,VWS V14.01,2013-07-26 16:35:00,
2013-07-26 11:39:00,65.6,63.5,29.85,North,360,2.0,11.0,93,0.16,,-RA,0.16,VWS V14.01,2013-07-26 16:39:00,
2013-07-26 11:40:00,65.6,63.5,29.85,SE,130,3.0,11.0,93,0.16,,FEW250,0.16,VWS V14.01,2013-07-26 16:40:00,
2013-07-26 11:44:00,65.5,63.4,29.84,SSE,150,0.0,14.0,93,0.17,,-RA,0.17,VWS V14.01,2013-07-26 16:44:00,
2013-07-26 11:45:00,65.5,63.4,29.84,SSE,150,0.0,14.0,93,0.17,,FEW250,0.17,VWS V14.01,2013-07-26 16:45:00,
2013-07-26 11:49:00,65.4,63.3,29.85,North,360,9.0,15.0,93,0.21,,-RA,0.21,VWS V14.01,2013-07-26 16:49:00,
2013-07-26 11:50:00,65.4,63.3,29.85,North,360,9.0,15.0,93,0.21,,FEW250,0.21,VWS V14.01,2013-07-26 16:50:00,
2013-07-26 11:54:00,65.4,63.6,29.85,SSW,195,14.0,20.0,94,0.28,,-RA,0.28,VWS V14.01,2013-07-26 16:54:00,
2013-07-26 11:55:00,65.4,63.6,29.85,SSW,195,14.0,20.0,94,0.28,,FEW250,0.28,VWS V14.01,2013-07-26 16:55:00,
2013-07-26 11:59:00,65.3,63.5,29.85,South,176,2.0,13.0,94,0.32,,-RA,0.33,VWS V14.01,2013-07-26 16:59:00,
2013-07-26 12:00:00,65.3,63.5,29.85,South,176,2.0,13.0,94,0.32,,FEW250,0.33,VWS V14.01,2013-07-26 17:00:00,
2013-07-26 12:05:00,65.1,63.0,29.85,North,360,2.0,23.0,93,0.36,,RA,0.38,VWS V14.01,2013-07-26 17:05:00,
2013-07-26 12:10:00,65.0,62.9,29.85,North,360,6.0,18.0,93,0.41,,RA,0.44,VWS V14.01,2013-07-26 17:10:00,
2013-07-26 12:15:00,64.9,63.1,29.84,North,360,8.0,18.0,94,0.45,,RA,0.49,VWS V14.01,2013-07-26 17:15:00,
2013-07-26 12:20:00,65.0,63.2,29.84,South,171,2.0,10.0,94,0.46,,RA,0.51,VWS V14.01,2013-07-26 17:20:00,
2013-07-26 12:25:00,64.8,63.0,29.84,North,360,2.0,18.0,94,0.45,,RA,0.53,VWS V14.01,2013-07-26 17:25:00,
2013-07-26 12:30:00,64.7,62.9,29.84,SSE,148,2.0,15.0,94,0.43,,RA,0.53,VWS V14.01,2013-07-26 17:30:00,
2013-07-26 12:35:00,64.7,62.9,29.84,South,170,13.0,15.0,94,0.39,,-RA,0.53,VWS V14.01,2013-07-26 17:35:00,
2013-07-26 12:40:00,64.7,62.9,29.83,North,360,4.0,12.0,94,0.37,,-RA,0.53,VWS V14.01,2013-07-26 17:40:00,
2013-07-26 12:45:00,64.7,62.9,29.83,SSW,197,18.0,18.0,94,0.36,,-RA,0.53,VWS V14.01,2013-07-26 17:45:00,
2013-07-26 12:50:00,64.7,62.6,29.83,South,189,13.0,20.0,93,0.36,,FEW250,0.53,VWS V14.01,2013-07-26 17:50:00,
2013-07-26 12:51:00,64.7,62.6,29.83,SSE,159,4.0,16.0,93,0.32,,-RA,0.53,VWS V14.01,2013-07-26 17:51:00,
2013-07-26 12:55:00,64.7,62.6,29.83,SW,221,15.0,22.0,93,0.32,,FEW250,0.53,VWS V14.01,2013-07-26 17:55:00,
2013-07-26 12:56:00,64.7,62.6,29.83,South,169,9.0,22.0,93,0.25,,-RA,0.53,VWS V14.01,2013-07-26 17:56:00,
2013-07-26 13:00:00,64.7,62.6,29.83,SSE,165,2.0,22.0,93,0.25,,FEW250,0.53,VWS V14.01,2013-07-26 18:00:00,
2013-07-26 13:01:00,64.8,62.7,29.82,North,360,7.0,14.0,93,0.20,, +RA,0.53,VWS V14.01,2013-07-26 18:01:00,
2013-07-26 13:05:00,64.8,62.7,29.83,North,360,5.0,18.0,93,0.20,,FEW250,0.53,VWS V14.01,2013-07-26 18:05:00,
2013-07-26 13:06:00,64.8,62.7,29.83,North,360,4.0,15.0,93,0.15,, +RA,0.53,VWS V14.01,2013-07-26 18:06:00,
2013-07-26 13:10:00,64.8,62.7,29.83,North,360,9.0,15.0,93,0.15,,FEW250,0.53,VWS V14.01,2013-07-26 18:10:00,
2013-07-26 13:11:00,64.8,62.7,29.83,North,360,4.0,15.0,93,0.10,, +RA,0.53,VWS V14.01,2013-07-26 18:11:00,
2013-07-26 13:15:00,64.9,62.8,29.82,North,360,10.0,18.0,93,0.10,,FEW250,0.53,VWS V14.01,2013-07-26 18:15:00,
2013-07-26 13:16:00,64.9,62.8,29.82,North,360,4.0,20.0,93,0.04,, +RA,0.53,VWS V14.01,2013-07-26 18:16:00,
2013-07-26 13:20:00,65.2,63.1,29.82,North,360,12.0,17.0,93,0.04,,FEW250,0.53,VWS V14.01,2013-07-26 18:20:00,
2013-07-26 13:21:00,65.3,63.2,29.82,South,188,15.0,17.0,93,0.02,, +RA,0.53,VWS V14.01,2013-07-26 18:21:00,
2013-07-26 13:25:00,65.5,63.4,29.82,North,360,5.0,17.0,93,0.02,,FEW250,0.53,VWS V14.01,2013-07-26 18:25:00,
2013-07-26 13:26:00,65.5,63.4,29.82,SSW,192,0.0,17.0,93,0.00,, +RA,0.53,VWS V14.01,2013-07-26 18:26:00,
2013-07-26 13:30:00,65.6,63.5,29.82,North,360,2.0,15.0,93,0.00,,FEW250,0.53,VWS V14.01,2013-07-26 18:30:00,
2013-07-26 13:31:00,65.5,63.1,29.82,SSW,207,13.0,19.0,92,0.00,,-RA,0.53,VWS V14.01,2013-07-26 18:31:00,
2013-07-26 13:35:00,65.4,63.0,29.82,North,360,6.0,19.0,92,0.00,,FEW250,0.53,VWS V14.01,2013-07-26 18:35:00,
2013-07-26 13:36:00,65.4,63.3,29.82,North,360,11.0,16.0,93,0.00,,-RA,0.53,VWS V14.01,2013-07-26 18:36:00,
2013-07-26 13:40:00,65.3,63.2,29.82,SSW,202,10.0,15.0,93,0.00,,FEW250,0.53,VWS V14.01,2013-07-26 18:40:00,
2013-07-26 13:41:00,65.3,63.2,29.82,North,360,5.0,18.0,93,0.00,,-RA,0.53,VWS V14.01,2013-07-26 18:41:00,
2013-07-26 13:45:00,65.3,63.2,29.82,SSW,207,9.0,18.0,93,0.00,,FEW250,0.53,VWS V14.01,2013-07-26 18:45:00,
2013-07-26 13:46:00,65.3,63.2,29.82,North,360,9.0,17.0,93,0.00,,-RA,0.53,VWS V14.01,2013-07-26 18:46:00,
2013-07-26 13:50:00,65.3,63.2,29.82,SSW,196,11.0,14.0,93,0.00,,FEW250,0.53,VWS V14.01,2013-07-26 18:50:00,
2013-07-26 13:52:00,65.3,63.2,29.82,North,360,14.0,15.0,93,0.00,,-RA,0.53,VWS V14.01,2013-07-26 18:52:00,
2013-07-26 13:55:00,65.3,63.2,29.82,North,360,6.0,16.0,93,0.00,,FEW250,0.53,VWS V14.01,2013-07-26 18:55:00,
2013-07-26 13:57:00,65.3,63.2,29.82,SE,130,11.0,20.0,93,0.00,,-RA,0.53,VWS V14.01,2013-07-26 18:57:00,
2013-07-26 14:00:00,65.3,63.2,29.82,SSW,194,2.0,20.0,93,0.00,,FEW250,0.53,VWS V14.01,2013-07-26 19:00:00,
2013-07-26 14:02:00,65.5,63.4,29.82,SSW,192,4.0,15.0,93,0.00,,-RA,0.53,VWS V14.01,2013-07-26 19:02:00,
2013-07-26 14:05:00,65.5,63.4,29.81,North,360,9.0,21.0,93,0.00,,FEW250,0.53,VWS V14.01,2013-07-26 19:05:00,
2013-07-26 14:07:00,65.6,63.5,29.82,North,360,10.0,21.0,93,0.00,,-RA,0.53,VWS V14.01,2013-07-26 19:07:00,
2013-07-26 14:10:00,65.6,63.5,29.82,South,171,5.0,18.0,93,0.00,,FEW250,0.53,VWS V14.01,2013-07-26 19:10:00,
2013-07-26 14:12:00,65.7,63.3,29.82,SSW,196,6.0,17.0,92,0.00,,-RA,0.53,VWS V14.01,2013-07-26 19:12:00,
2013-07-26 14:15:00,65.8,63.7,29.81,South,175,7.0,17.0,93,0.00,,FEW250,0.53,VWS V14.01,2013-07-26 19:15:00,
2013-07-26 14:17:00,66.0,63.9,29.80,SSE,161,10.0,15.0,93,0.00,,-RA,0.53,VWS V14.01,2013-07-26 19:17:00,
2013-07-26 14:20:00,66.2,63.8,29.80,SSE,165,5.0,19.0,92,0.00,,FEW250,0.53,VWS V14.01,2013-07-26 19:20:00,
2013-07-26 14:22:00,66.5,64.1,29.80,North,360,5.0,19.0,92,0.00,,-RA,0.53,VWS V14.01,2013-07-26 19:22:00,
2013-07-26 14:25:00,66.7,64.3,29.80,SW,221,5.0,19.0,92,0.00,,FEW250,0.53,VWS V14.01,2013-07-26 19:25:00,
2013-07-26 14:27:00,67.0,64.6,29.80,North,360,6.0,12.0,92,0.00,,-RA,0.53,VWS V14.01,2013-07-26 19:27:00,
2013-07-26 14:30:00,67.0,64.3,29.80,North,360,5.0,18.0,91,0.00,,FEW250,0.53,VWS V14.01,2013-07-26 19:30:00,
2013-07-26 14:32:00,67.1,64.7,29.80,North,360,8.0,17.0,92,0.00,,-RA,0.53,VWS V14.01,2013-07-26 19:32:00,
2013-07-26 14:35:00,67.3,64.9,29.80,SSW,207,4.0,12.0,92,0.00,,FEW250,0.53,VWS V14.01,2013-07-26 19:35:00,
2013-07-26 14:37:00,67.6,64.9,29.80,North,360,17.0,17.0,91,0.00,,-RA,0.53,VWS V14.01,2013-07-26 19:37:00,
2013-07-26 14:40:00,67.6,64.9,29.80,SSW,193,14.0,18.0,91,0.00,,FEW250,0.53,VWS V14.01,2013-07-26 19:40:00,
2013-07-26 14:42:00,67.9,65.2,29.79,SW,217,14.0,17.0,91,0.00,,-RA,0.53,VWS V14.01,2013-07-26 19:42:00,
2013-07-26 14:45:00,67.9,64.9,29.79,SSW,197,5.0,17.0,90,0.00,,FEW250,0.53,VWS V14.01,2013-07-26 19:45:00,
2013-07-26 14:48:00,68.1,65.1,29.79,SW,227,6.0,14.0,90,0.00,,-RA,0.53,VWS V14.01,2013-07-26 19:48:00,
2013-07-26 14:50:00,68.2,65.2,29.79,North,360,4.0,14.0,90,0.00,,FEW250,0.53,VWS V14.01,2013-07-26 19:50:00,
2013-07-26 14:53:00,68.2,65.2,29.79,North,360,11.0,23.0,90,0.00,,-RA,0.53,VWS V14.01,2013-07-26 19:53:00,
2013-07-26 14:55:00,68.2,64.8,29.78,North,360,13.0,23.0,89,0.00,,FEW250,0.53,VWS V14.01,2013-07-26 19:55:00,
2013-07-26 14:58:00,68.2,65.2,29.78,SW,232,5.0,19.0,90,0.00,,-RA,0.53,VWS V14.01,2013-07-26 19:58:00,
2013-07-26 15:00:00,68.3,65.3,29.79,North,360,8.0,19.0,90,0.00,,FEW250,0.53,VWS V14.01,2013-07-26 20:00:00,
2013-07-26 15:03:00,68.0,64.6,29.79,North,360,9.0,19.0,89,0.00,,,0.53,VWS V14.01,2013-07-26 20:03:00,
2013-07-26 15:05:00,68.1,65.1,29.78,North,360,13.0,19.0,90,0.00,,FEW250,0.53,VWS V14.01,2013-07-26 20:05:00,
2013-07-26 15:08:00,68.2,65.2,29.78,North,360,9.0,17.0,90,0.00,,,0.53,VWS V14.01,2013-07-26 20:08:00,
2013-07-26 15:10:00,68.2,65.2,29.78,SW,227,1.0,12.0,90,0.00,,FEW250,0.53,VWS V14.01,2013-07-26 20:10:00,
2013-07-26 15:13:00,68.3,65.3,29.78,North,360,3.0,12.0,90,0.00,,,0.53,VWS V14.01,2013-07-26 20:13:00,
2013-07-26 15:15:00,68.3,65.3,29.78,North,360,8.0,15.0,90,0.00,,FEW250,0.53,VWS V14.01,2013-07-26 20:15:00,
2013-07-26 15:18:00,68.1,65.1,29.78,South,191,4.0,12.0,90,0.00,,,0.53,VWS V14.01,2013-07-26 20:18:00,
2013-07-26 15:20:00,68.1,65.1,29.78,North,360,1.0,9.0,90,0.00,,FEW250,0.53,VWS V14.01,2013-07-26 20:20:00,
2013-07-26 15:23:00,68.2,65.2,29.78,North,360,5.0,11.0,90,0.00,,,0.53,VWS V14.01,2013-07-26 20:23:00,
2013-07-26 15:25:00,68.2,65.2,29.78,North,360,12.0,14.0,90,0.00,,FEW250,0.53,VWS V14.01,2013-07-26 20:25:00,
2013-07-26 15:28:00,68.0,65.0,29.78,North,360,6.0,14.0,90,0.00,,,0.53,VWS V14.01,2013-07-26 20:28:00,
2013-07-26 15:30:00,68.0,65.0,29.78,North,360,4.0,13.0,90,0.00,,FEW250,0.53,VWS V14.01,2013-07-26 20:30:00,
2013-07-26 15:33:00,68.3,65.3,29.78,North,360,5.0,16.0,90,0.00,,,0.53,VWS V14.01,2013-07-26 20:33:00,
2013-07-26 15:35:00,68.3,65.6,29.78,North,360,2.0,16.0,91,0.00,,FEW250,0.53,VWS V14.01,2013-07-26 20:35:00,
2013-07-26 15:38:00,68.4,65.4,29.78,North,360,11.0,17.0,90,0.00,,,0.53,VWS V14.01,2013-07-26 20:38:00,
2013-07-26 15:40:00,68.4,65.4,29.78,South,184,1.0,17.0,90,0.00,,FEW250,0.53,VWS V14.01,2013-07-26 20:40:00,
2013-07-26 15:44:00,68.6,65.6,29.78,North,360,4.0,6.0,90,0.00,,,0.53,VWS V14.01,2013-07-26 20:44:00,
2013-07-26 15:45:00,68.6,65.6,29.78,SSW,192,9.0,12.0,90,0.00,,FEW250,0.53,VWS V14.01,2013-07-26 20:45:00,
2013-07-26 15:49:00,68.6,65.6,29.78,North,360,5.0,10.0,90,0.00,,,0.53,VWS V14.01,2013-07-26 20:49:00,
2013-07-26 15:50:00,68.5,65.5,29.78,North,360,8.0,13.0,90,0.00,,FEW250,0.53,VWS V14.01,2013-07-26 20:50:00,
2013-07-26 15:54:00,68.4,65.4,29.78,North,360,2.0,12.0,90,0.00,,,0.53,VWS V14.01,2013-07-26 20:54:00,
2013-07-26 15:55:00,68.4,65.4,29.78,SW,219,1.0,12.0,90,0.00,,FEW250,0.53,VWS V14.01,2013-07-26 20:55:00,
2013-07-26 15:59:00,68.5,65.5,29.79,SSW,194,0.0,5.0,90,0.00,,,0.53,VWS V14.01,2013-07-26 20:59:00,
2013-07-26 16:00:00,68.5,65.5,29.79,SSW,194,0.0,5.0,90,0.00,,FEW250,0.53,VWS V14.01,2013-07-26 21:00:00,
2013-07-26 16:04:00,68.5,65.5,29.79,SSW,198,5.0,12.0,90,0.00,,OVC008,0.53,VWS V14.01,2013-07-26 21:04:00,
2013-07-26 16:05:00,68.5,65.5,29.79,North,360,9.0,12.0,90,0.00,,FEW250,0.53,VWS V14.01,2013-07-26 21:05:00,
2013-07-26 16:09:00,68.5,65.5,29.79,North,360,7.0,13.0,90,0.00,,OVC008,0.53,VWS V14.01,2013-07-26 21:09:00,
2013-07-26 16:10:00,68.5,65.5,29.79,SSW,205,1.0,13.0,90,0.00,,FEW250,0.53,VWS V14.01,2013-07-26 21:10:00,
2013-07-26 16:14:00,68.5,65.5,29.79,North,360,8.0,17.0,90,0.00,,OVC008,0.53,VWS V14.01,2013-07-26 21:14:00,
2013-07-26 16:15:00,68.5,65.5,29.79,South,171,7.0,17.0,90,0.00,,FEW250,0.53,VWS V14.01,2013-07-26 21:15:00,
2013-07-26 16:19:00,68.5,65.5,29.79,North,360,9.0,17.0,90,0.00,,OVC008,0.53,VWS V14.01,2013-07-26 21:19:00,
2013-07-26 16:20:00,68.5,65.5,29.79,North,360,9.0,17.0,90,0.00,,FEW250,0.53,VWS V14.01,2013-07-26 21:20:00,
2013-07-26 16:24:00,68.6,65.6,29.78,North,360,5.0,12.0,90,0.00,,OVC008,0.53,VWS V14.01,2013-07-26 21:24:00,
2013-07-26 16:25:00,68.6,65.6,29.78,North,360,5.0,12.0,90,0.00,,FEW250,0.53,VWS V14.01,2013-07-26 21:25:00,
2013-07-26 16:29:00,68.8,65.8,29.78,North,360,9.0,19.0,90,0.00,,OVC008,0.53,VWS V14.01,2013-07-26 21:29:00,
2013-07-26 16:30:00,68.8,65.8,29.78,North,360,9.0,19.0,90,0.00,,FEW250,0.53,VWS V14.01,2013-07-26 21:30:00,
2013-07-26 16:34:00,69.0,65.9,29.80,SSW,204,3.0,15.0,90,0.00,,OVC008,0.53,VWS V14.01,2013-07-26 21:34:00,
2013-07-26 16:35:00,69.0,65.9,29.80,SSW,204,3.0,15.0,90,0.00,,FEW250,0.53,VWS V14.01,2013-07-26 21:35:00,
2013-07-26 16:39:00,69.0,65.9,29.80,South,179,0.0,14.0,90,0.00,,OVC008,0.53,VWS V14.01,2013-07-26 21:39:00,
2013-07-26 16:40:00,69.0,65.9,29.80,SSW,207,1.0,18.0,90,0.00,,FEW250,0.53,VWS V14.01,2013-07-26 21:40:00,
2013-07-26 16:44:00,69.0,65.9,29.81,SW,229,0.0,9.0,90,0.00,,OVC008,0.53,VWS V14.01,2013-07-26 21:44:00,
2013-07-26 16:45:00,69.0,65.9,29.81,SW,229,0.0,13.0,90,0.00,,FEW250,0.53,VWS V14.01,2013-07-26 21:45:00,
2013-07-26 16:50:00,69.0,65.9,29.81,SW,226,11.0,12.0,90,0.00,,OVC008,0.53,VWS V14.01,2013-07-26 21:50:00,
2013-07-26 16:55:00,68.8,65.8,29.80,West,261,0.0,11.0,90,0.00,,OVC008,0.53,VWS V14.01,2013-07-26 21:55:00,
2013-07-26 17:00:00,68.5,64.8,29.80,West,275,6.0,12.0,88,0.01,,OVC008,0.54,VWS V14.01,2013-07-26 22:00:00,
2013-07-26 17:05:00,67.8,62.8,29.79,SW,236,0.0,13.0,84,0.04,,OVC030,0.57,VWS V14.01,2013-07-26 22:05:00,
2013-07-26 17:10:00,67.9,63.2,29.78,North,360,0.0,0.0,85,0.04,,OVC030,0.57,VWS V14.01,2013-07-26 22:10:00,
2013-07-26 17:15:00,68.2,63.5,29.79,SSW,207,2.0,7.0,85,0.04,,OVC030,0.57,VWS V14.01,2013-07-26 22:15:00,
2013-07-26 17:20:00,68.2,63.2,29.79,South,172,0.0,7.0,84,0.04,,OVC030,0.57,VWS V14.01,2013-07-26 22:20:00,
2013-07-26 17:25:00,68.3,62.6,29.79,North,360,2.0,10.0,82,0.04,,OVC030,0.57,VWS V14.01,2013-07-26 22:25:00,
2013-07-26 17:30:00,68.8,64.1,29.79,North,360,11.0,13.0,85,0.05,,-RA,0.58,VWS V14.01,2013-07-26 22:30:00,
2013-07-26 17:35:00,68.7,63.0,29.79,North,360,8.0,11.0,82,0.05,,-RA,0.58,VWS V14.01,2013-07-26 22:35:00,
2013-07-26 17:40:00,68.5,62.8,29.79,North,360,0.0,9.0,82,0.05,,-RA,0.58,VWS V14.01,2013-07-26 22:40:00,
2013-07-26 17:45:00,68.7,62.6,29.79,South,190,6.0,8.0,81,0.05,,FEW250,0.58,VWS V14.01,2013-07-26 22:45:00,
2013-07-26 17:46:00,68.7,62.3,29.79,SSW,198,4.0,8.0,80,0.05,,-RA,0.58,VWS V14.01,2013-07-26 22:46:00,
2013-07-26 17:50:00,68.6,62.2,29.79,North,360,1.0,6.0,80,0.05,,FEW250,0.58,VWS V14.01,2013-07-26 22:50:00,
2013-07-26 17:51:00,68.6,62.2,29.78,SSW,198,0.0,6.0,80,0.05,,-RA,0.58,VWS V14.01,2013-07-26 22:51:00,
2013-07-26 17:55:00,68.6,62.9,29.78,North,360,0.0,3.0,82,0.05,,FEW250,0.58,VWS V14.01,2013-07-26 22:55:00,
2013-07-26 17:56:00,68.7,63.0,29.78,North,360,0.0,3.0,82,0.05,,-RA,0.58,VWS V14.01,2013-07-26 22:56:00,
2013-07-26 18:00:00,68.5,62.1,29.78,North,360,5.0,9.0,80,0.05,,FEW250,0.58,VWS V14.01,2013-07-26 23:00:00,
2013-07-26 18:01:00,68.4,62.0,29.78,North,360,2.0,9.0,80,0.04,,BKN250,0.58,VWS V14.01,2013-07-26 23:01:00,
2013-07-26 18:05:00,68.3,62.6,29.78,SSW,209,7.0,9.0,82,0.04,,FEW250,0.58,VWS V14.01,2013-07-26 23:05:00,
2013-07-26 18:06:00,68.4,62.7,29.78,North,360,1.0,9.0,82,0.01,,BKN250,0.58,VWS V14.01,2013-07-26 23:06:00,
2013-07-26 18:10:00,68.6,63.6,29.78,SW,220,5.0,8.0,84,0.01,,FEW250,0.58,VWS V14.01,2013-07-26 23:10:00,
2013-07-26 18:11:00,68.7,64.0,29.78,South,184,0.0,8.0,85,0.01,,BKN250,0.58,VWS V14.01,2013-07-26 23:11:00,
2013-07-26 18:15:00,68.8,64.1,29.78,SW,218,2.0,8.0,85,0.01,,FEW250,0.58,VWS V14.01,2013-07-26 23:15:00,
2013-07-26 18:16:00,68.9,64.6,29.78,WSW,243,6.0,11.0,86,0.01,,BKN250,0.58,VWS V14.01,2013-07-26 23:16:00,
2013-07-26 18:20:00,69.0,64.6,29.77,SW,232,9.0,10.0,86,0.01,,FEW250,0.58,VWS V14.01,2013-07-26 23:20:00,
2013-07-26 18:22:00,69.1,65.4,29.77,North,360,0.0,13.0,88,0.01,,BKN250,0.58,VWS V14.01,2013-07-26 23:22:00,
2013-07-26 18:25:00,69.2,65.5,29.77,SW,217,0.0,12.0,88,0.01,,FEW250,0.58,VWS V14.01,2013-07-26 23:25:00,
2013-07-26 18:27:00,69.7,66.0,29.77,WSW,248,0.0,10.0,88,0.01,,BKN250,0.58,VWS V14.01,2013-07-26 23:27:00,
2013-07-26 18:30:00,69.9,66.2,29.77,WSW,257,0.0,3.0,88,0.01,,FEW250,0.58,VWS V14.01,2013-07-26 23:30:00,
2013-07-26 18:32:00,70.3,66.6,29.77,SW,215,0.0,0.0,88,0.01,,BKN250,0.58,VWS V14.01,2013-07-26 23:32:00,
2013-07-26 18:35:00,70.5,66.8,29.77,North,360,0.0,0.0,88,0.01,,FEW250,0.58,VWS V14.01,2013-07-26 23:35:00,
2013-07-26 18:37:00,70.9,66.8,29.77,West,261,4.0,5.0,87,0.00,,BKN250,0.58,VWS V14.01,2013-07-26 23:37:00,
2013-07-26 18:40:00,71.0,66.9,29.77,SSW,210,0.0,7.0,87,0.00,,FEW250,0.58,VWS V14.01,2013-07-26 23:40:00,
2013-07-26 18:43:00,71.1,66.7,29.77,SW,232,6.0,13.0,86,0.00,,BKN250,0.58,VWS V14.01,2013-07-26 23:43:00,
2013-07-26 18:45:00,71.1,66.4,29.77,SW,220,0.0,13.0,85,0.00,,FEW250,0.58,VWS V14.01,2013-07-26 23:45:00,
2013-07-26 18:48:00,71.4,66.7,29.77,SW,220,0.0,6.0,85,0.00,,BKN250,0.58,VWS V14.01,2013-07-26 23:48:00,
2013-07-26 18:50:00,71.6,66.9,29.77,West,259,4.0,7.0,85,0.00,,FEW250,0.58,VWS V14.01,2013-07-26 23:50:00,
2013-07-26 18:53:00,71.6,66.5,29.78,SW,216,0.0,9.0,84,0.00,,BKN250,0.58,VWS V14.01,2013-07-26 23:53:00,
2013-07-26 18:55:00,71.7,66.9,29.77,West,261,0.0,9.0,85,0.00,,FEW250,0.58,VWS V14.01,2013-07-26 23:55:00,
2013-07-26 18:58:00,71.7,66.6,29.77,WSW,255,0.0,5.0,84,0.00,,BKN250,0.58,VWS V14.01,2013-07-26 23:58:00,
2013-07-26 19:00:00,71.7,65.9,29.77,WSW,246,0.0,5.0,82,0.00,,FEW250,0.58,VWS V14.01,2013-07-27 00:00:00,
2013-07-26 19:03:00,71.8,66.0,29.78,WSW,246,0.0,3.0,82,0.00,,BKN250,0.58,VWS V14.01,2013-07-27 00:03:00,
2013-07-26 19:05:00,71.8,66.0,29.77,WSW,247,0.0,3.0,82,0.00,,FEW250,0.58,VWS V14.01,2013-07-27 00:05:00,
2013-07-26 19:08:00,71.6,65.8,29.77,SW,214,3.0,7.0,82,0.00,,BKN250,0.58,VWS V14.01,2013-07-27 00:08:00,
2013-07-26 19:10:00,71.4,65.6,29.77,SW,223,0.0,7.0,82,0.00,,FEW250,0.58,VWS V14.01,2013-07-27 00:10:00,
2013-07-26 19:13:00,71.1,65.7,29.77,West,260,3.0,4.0,83,0.00,,BKN250,0.58,VWS V14.01,2013-07-27 00:13:00,
2013-07-26 19:15:00,71.0,65.6,29.77,West,261,2.0,5.0,83,0.00,,FEW250,0.58,VWS V14.01,2013-07-27 00:15:00,
2013-07-26 19:18:00,70.8,65.7,29.78,WSW,257,0.0,4.0,84,0.00,,BKN250,0.58,VWS V14.01,2013-07-27 00:18:00,
2013-07-26 19:20:00,70.8,65.7,29.78,West,263,0.0,4.0,84,0.00,,FEW250,0.58,VWS V14.01,2013-07-27 00:20:00,
2013-07-26 19:23:00,70.9,66.2,29.78,West,259,0.0,0.0,85,0.00,,BKN250,0.58,VWS V14.01,2013-07-27 00:23:00,
2013-07-26 19:25:00,70.9,66.2,29.78,WSW,257,0.0,0.0,85,0.00,,FEW250,0.58,VWS V14.01,2013-07-27 00:25:00,
2013-07-26 19:28:00,70.9,66.2,29.78,SW,223,0.0,5.0,85,0.00,,BKN250,0.58,VWS V14.01,2013-07-27 00:28:00,
2013-07-26 19:30:00,70.8,66.1,29.78,SSW,200,2.0,5.0,85,0.00,,FEW250,0.58,VWS V14.01,2013-07-27 00:30:00,
2013-07-26 19:33:00,70.6,65.9,29.78,SSW,194,0.0,2.0,85,0.00,,BKN250,0.58,VWS V14.01,2013-07-27 00:33:00,
2013-07-26 19:35:00,70.6,65.9,29.78,North,360,0.0,4.0,85,0.00,,FEW250,0.58,VWS V14.01,2013-07-27 00:35:00,
2013-07-26 19:39:00,70.5,65.8,29.78,SSW,209,0.0,0.0,85,0.00,,BKN250,0.58,VWS V14.01,2013-07-27 00:39:00,
2013-07-26 19:40:00,70.4,65.7,29.78,SW,215,0.0,1.0,85,0.00,,FEW250,0.58,VWS V14.01,2013-07-27 00:40:00,
2013-07-26 19:44:00,70.3,65.6,29.78,WSW,239,0.0,9.0,85,0.00,,BKN250,0.58,VWS V14.01,2013-07-27 00:44:00,
2013-07-26 19:45:00,70.2,65.5,29.78,WSW,252,0.0,9.0,85,0.00,,FEW250,0.58,VWS V14.01,2013-07-27 00:45:00,
2013-07-26 19:49:00,70.1,65.4,29.78,West,264,0.0,6.0,85,0.00,,BKN250,0.58,VWS V14.01,2013-07-27 00:49:00,
2013-07-26 19:50:00,70.1,65.4,29.78,West,262,0.0,5.0,85,0.00,,FEW250,0.58,VWS V14.01,2013-07-27 00:50:00,
2013-07-26 19:54:00,69.9,65.5,29.78,West,262,0.0,0.0,86,0.00,,BKN250,0.58,VWS V14.01,2013-07-27 00:54:00,
2013-07-26 19:55:00,69.9,65.5,29.78,West,262,0.0,0.0,86,0.00,,FEW250,0.58,VWS V14.01,2013-07-27 00:55:00,
2013-07-26 19:59:00,69.6,65.6,29.77,West,263,0.0,0.0,87,0.00,,BKN250,0.58,VWS V14.01,2013-07-27 00:59:00,
2013-07-26 20:00:00,69.6,65.6,29.77,West,263,0.0,0.0,87,0.00,,FEW250,0.58,VWS V14.01,2013-07-27 01:00:00,
2013-07-26 20:04:00,69.3,65.3,29.77,SW,232,0.0,0.0,87,0.00,,SCT250,0.58,VWS V14.01,2013-07-27 01:04:00,
2013-07-26 20:05:00,69.3,65.3,29.77,SW,232,0.0,0.0,87,0.00,,FEW250,0.58,VWS V14.01,2013-07-27 01:05:00,
2013-07-26 20:09:00,69.0,65.3,29.77,SW,232,0.0,0.0,88,0.00,,SCT250,0.58,VWS V14.01,2013-07-27 01:09:00,
2013-07-26 20:10:00,69.0,65.3,29.77,SW,233,0.0,0.0,88,0.00,,FEW250,0.58,VWS V14.01,2013-07-27 01:10:00,
2013-07-26 20:14:00,68.7,65.0,29.77,SW,232,0.0,0.0,88,0.00,,SCT250,0.58,VWS V14.01,2013-07-27 01:14:00,
2013-07-26 20:15:00,68.7,65.0,29.77,SW,232,0.0,0.0,88,0.00,,FEW250,0.58,VWS V14.01,2013-07-27 01:15:00,
2013-07-26 20:19:00,68.3,64.9,29.77,SW,232,0.0,0.0,89,0.00,,SCT250,0.58,VWS V14.01,2013-07-27 01:19:00,
2013-07-26 20:20:00,68.3,64.9,29.77,SW,232,0.0,0.0,89,0.00,,FEW250,0.58,VWS V14.01,2013-07-27 01:20:00,
2013-07-26 20:24:00,68.0,64.6,29.78,SW,232,0.0,0.0,89,0.00,,SCT250,0.58,VWS V14.01,2013-07-27 01:24:00,
2013-07-26 20:25:00,68.0,64.6,29.78,SW,232,0.0,0.0,89,0.00,,FEW250,0.58,VWS V14.01,2013-07-27 01:25:00,
2013-07-26 20:29:00,67.7,64.3,29.78,WSW,239,0.0,0.0,89,0.00,,SCT250,0.58,VWS V14.01,2013-07-27 01:29:00,
2013-07-26 20:30:00,67.7,64.3,29.78,WSW,239,0.0,0.0,89,0.00,,FEW250,0.58,VWS V14.01,2013-07-27 01:30:00,
2013-07-26 20:34:00,67.5,64.2,29.78,WSW,240,0.0,0.0,89,0.00,,SCT250,0.58,VWS V14.01,2013-07-27 01:34:00,
2013-07-26 20:35:00,67.5,64.2,29.78,WSW,240,0.0,0.0,89,0.00,,FEW250,0.58,VWS V14.01,2013-07-27 01:35:00,
2013-07-26 20:39:00,67.3,64.3,29.78,WSW,240,0.0,0.0,90,0.00,,SCT250,0.58,VWS V14.01,2013-07-27 01:39:00,
2013-07-26 20:40:00,67.3,64.3,29.78,WSW,240,0.0,0.0,90,0.00,,FEW250,0.58,VWS V14.01,2013-07-27 01:40:00,
2013-07-26 20:44:00,67.2,64.2,29.79,WSW,250,0.0,0.0,90,0.00,,SCT250,0.58,VWS V14.01,2013-07-27 01:44:00,
2013-07-26 20:45:00,67.2,64.2,29.79,WSW,250,0.0,0.0,90,0.00,,FEW250,0.58,VWS V14.01,2013-07-27 01:45:00,
2013-07-26 20:49:00,67.0,64.0,29.79,WSW,238,0.0,0.0,90,0.00,,SCT250,0.58,VWS V14.01,2013-07-27 01:49:00,
2013-07-26 20:50:00,67.0,64.0,29.79,WSW,238,0.0,0.0,90,0.00,,FEW250,0.58,VWS V14.01,2013-07-27 01:50:00,
2013-07-26 20:53:00,66.8,63.8,29.79,WSW,239,0.0,0.0,90,0.00,,SCT250,0.58,VWS V14.01,2013-07-27 01:53:00,
2013-07-26 20:55:00,66.8,63.8,29.79,WSW,239,0.0,0.0,90,0.00,,FEW250,0.58,VWS V14.01,2013-07-27 01:55:00,
2013-07-26 20:58:00,66.7,64.0,29.79,WSW,251,0.0,2.0,91,0.00,,SCT250,0.58,VWS V14.01,2013-07-27 01:58:00,
2013-07-26 21:00:00,66.7,64.0,29.79,WSW,251,0.0,2.0,91,0.00,,FEW250,0.58,VWS V14.01,2013-07-27 02:00:00,
2013-07-26 21:03:00,66.6,63.9,29.80,SW,236,0.0,4.0,91,0.00,,SCT250,0.58,VWS V14.01,2013-07-27 02:03:00,
2013-07-26 21:05:00,66.6,63.9,29.80,WSW,240,0.0,4.0,91,0.00,,FEW250,0.58,VWS V14.01,2013-07-27 02:05:00,
2013-07-26 21:08:00,66.5,63.8,29.80,SW,230,0.0,0.0,91,0.00,,SCT250,0.58,VWS V14.01,2013-07-27 02:08:00,
2013-07-26 21:10:00,66.5,63.8,29.80,SW,230,0.0,5.0,91,0.00,,FEW250,0.58,VWS V14.01,2013-07-27 02:10:00,
2013-07-26 21:13:00,66.4,63.7,29.80,SW,224,0.0,3.0,91,0.00,,SCT250,0.58,VWS V14.01,2013-07-27 02:13:00,
2013-07-26 21:15:00,66.4,63.7,29.80,SW,225,0.0,3.0,91,0.00,,FEW250,0.58,VWS V14.01,2013-07-27 02:15:00,
2013-07-26 21:19:00,66.3,63.3,29.80,WSW,240,0.0,0.0,90,0.00,,SCT250,0.58,VWS V14.01,2013-07-27 02:19:00,
2013-07-26 21:20:00,66.4,63.4,29.80,WSW,240,0.0,0.0,90,0.00,,FEW250,0.58,VWS V14.01,2013-07-27 02:20:00,
2013-07-26 21:24:00,66.3,63.3,29.80,SW,228,0.0,5.0,90,0.00,,SCT250,0.58,VWS V14.01,2013-07-27 02:24:00,
2013-07-26 21:25:00,66.3,63.3,29.80,SSW,211,0.0,5.0,90,0.00,,FEW250,0.58,VWS V14.01,2013-07-27 02:25:00,
2013-07-26 21:29:00,66.1,63.1,29.80,WSW,252,0.0,0.0,90,0.00,,SCT250,0.58,VWS V14.01,2013-07-27 02:29:00,
2013-07-26 21:30:00,66.1,63.1,29.80,WSW,252,0.0,0.0,90,0.00,,FEW250,0.58,VWS V14.01,2013-07-27 02:30:00,
2013-07-26 21:34:00,65.9,62.9,29.80,SW,231,0.0,1.0,90,0.00,,SCT250,0.58,VWS V14.01,2013-07-27 02:34:00,
2013-07-26 21:35:00,65.9,62.9,29.80,WSW,238,0.0,1.0,90,0.00,,FEW250,0.58,VWS V14.01,2013-07-27 02:35:00,
2013-07-26 21:39:00,65.8,63.1,29.80,SW,228,0.0,0.0,91,0.00,,SCT250,0.58,VWS V14.01,2013-07-27 02:39:00,
2013-07-26 21:40:00,65.7,63.0,29.80,SW,228,0.0,0.0,91,0.00,,FEW250,0.58,VWS V14.01,2013-07-27 02:40:00,
2013-07-26 21:44:00,65.6,62.9,29.80,SW,227,0.0,0.0,91,0.00,,SCT250,0.58,VWS V14.01,2013-07-27 02:44:00,
2013-07-26 21:45:00,65.6,62.9,29.80,SW,227,0.0,0.0,91,0.00,,FEW250,0.58,VWS V14.01,2013-07-27 02:45:00,
2013-07-26 21:49:00,65.6,62.9,29.79,SW,227,0.0,0.0,91,0.00,,SCT250,0.58,VWS V14.01,2013-07-27 02:49:00,
2013-07-26 21:50:00,65.5,62.8,29.79,SW,227,0.0,0.0,91,0.00,,FEW250,0.58,VWS V14.01,2013-07-27 02:50:00,
2013-07-26 21:54:00,65.4,62.7,29.79,SW,227,0.0,0.0,91,0.00,,SCT250,0.58,VWS V14.01,2013-07-27 02:54:00,
2013-07-26 21:55:00,65.4,62.7,29.79,SW,227,0.0,0.0,91,0.00,,FEW250,0.58,VWS V14.01,2013-07-27 02:55:00,
2013-07-26 21:59:00,65.3,62.6,29.79,SW,227,0.0,1.0,91,0.00,,SCT250,0.58,VWS V14.01,2013-07-27 02:59:00,
2013-07-26 22:00:00,65.3,62.6,29.79,SW,227,0.0,1.0,91,0.00,,FEW250,0.58,VWS V14.01,2013-07-27 03:00:00,
2013-07-26 22:04:00,65.1,62.4,29.79,SW,228,0.0,0.0,91,0.00,,SCT250,0.58,VWS V14.01,2013-07-27 03:04:00,
2013-07-26 22:05:00,65.1,62.4,29.79,SW,228,0.0,0.0,91,0.00,,FEW250,0.58,VWS V14.01,2013-07-27 03:05:00,
2013-07-26 22:09:00,65.0,62.3,29.79,WSW,250,0.0,4.0,91,0.00,,SCT250,0.58,VWS V14.01,2013-07-27 03:09:00,
2013-07-26 22:10:00,65.0,62.3,29.79,WSW,250,0.0,4.0,91,0.00,,FEW250,0.58,VWS V14.01,2013-07-27 03:10:00,
2013-07-26 22:14:00,64.8,62.1,29.79,WSW,251,0.0,4.0,91,0.00,,SCT250,0.58,VWS V14.01,2013-07-27 03:14:00,
2013-07-26 22:15:00,64.8,62.1,29.79,WSW,251,0.0,4.0,91,0.00,,FEW250,0.58,VWS V14.01,2013-07-27 03:15:00,
2013-07-26 22:19:00,64.8,61.8,29.79,WSW,254,0.0,4.0,90,0.00,,SCT250,0.58,VWS V14.01,2013-07-27 03:19:00,
2013-07-26 22:20:00,64.8,61.8,29.79,WSW,254,0.0,4.0,90,0.00,,FEW250,0.58,VWS V14.01,2013-07-27 03:20:00,
2013-07-26 22:24:00,64.9,61.6,29.79,WSW,257,0.0,3.0,89,0.00,,SCT250,0.58,VWS V14.01,2013-07-27 03:24:00,
2013-07-26 22:25:00,64.9,61.6,29.79,WSW,257,0.0,3.0,89,0.00,,FEW250,0.58,VWS V14.01,2013-07-27 03:25:00,
2013-07-26 22:30:00,64.9,61.3,29.79,West,259,0.0,4.0,88,0.00,,SCT250,0.58,VWS V14.01,2013-07-27 03:30:00,
2013-07-26 22:35:00,64.9,60.9,29.79,West,264,4.0,7.0,87,0.00,,SCT250,0.58,VWS V14.01,2013-07-27 03:35:00,
2013-07-26 22:40:00,65.2,60.6,29.79,WNW,292,5.0,7.0,85,0.00,,SCT250,0.58,VWS V14.01,2013-07-27 03:40:00,
2013-07-26 22:45:00,65.2,60.2,29.79,West,268,2.0,5.0,84,0.00,,SCT250,0.58,VWS V14.01,2013-07-27 03:45:00,
2013-07-26 22:50:00,65.2,59.9,29.79,West,262,0.0,6.0,83,0.00,,SCT250,0.58,VWS V14.01,2013-07-27 03:50:00,
2013-07-26 22:55:00,65.0,59.7,29.79,WSW,257,0.0,0.0,83,0.00,,SCT250,0.58,VWS V14.01,2013-07-27 03:55:00,
2013-07-26 23:00:00,64.8,59.5,29.78,West,265,0.0,5.0,83,0.00,,SCT120,0.58,VWS V14.01,2013-07-27 04:00:00,
2013-07-26 23:01:00,64.7,59.4,29.78,WSW,257,0.0,5.0,83,0.00,,SCT120,0.58,VWS V14.01,2013-07-27 04:01:00,
2013-07-26 23:02:00,64.7,59.4,29.78,WSW,258,0.0,5.0,83,0.00,,SCT120,0.58,VWS V14.01,2013-07-27 04:02:00,
2013-07-26 23:03:00,64.7,59.8,29.78,West,269,2.0,4.0,84,0.00,,SCT120,0.58,VWS V14.01,2013-07-27 04:03:00,
2013-07-26 23:04:00,64.6,59.7,29.78,WSW,257,0.0,4.0,84,0.00,,SCT120,0.58,VWS V14.01,2013-07-27 04:04:00,
2013-07-26 23:05:00,64.6,59.7,29.78,WSW,257,0.0,4.0,84,0.00,,FEW250,0.58,VWS V14.01,2013-07-27 04:05:00,
2013-07-26 23:07:00,64.4,59.5,29.78,West,259,0.0,4.0,84,0.00,,SCT120,0.58,VWS V14.01,2013-07-27 04:07:00,
2013-07-26 23:10:00,64.3,59.4,29.78,West,259,2.0,6.0,84,0.00,,FEW250,0.58,VWS V14.01,2013-07-27 04:10:00,
2013-07-26 23:12:00,64.2,59.3,29.78,West,260,0.0,6.0,84,0.00,,SCT120,0.58,VWS V14.01,2013-07-27 04:12:00,
2013-07-26 23:15:00,64.1,59.5,29.78,WSW,248,4.0,6.0,85,0.00,,FEW250,0.58,VWS V14.01,2013-07-27 04:15:00,
2013-07-26 23:17:00,63.9,59.3,29.78,WSW,250,0.0,6.0,85,0.00,,SCT120,0.58,VWS V14.01,2013-07-27 04:17:00,
2013-07-26 23:20:00,63.8,59.2,29.78,West,260,0.0,6.0,85,0.00,,FEW250,0.58,VWS V14.01,2013-07-27 04:20:00,
2013-07-26 23:23:00,63.5,59.2,29.78,WSW,250,0.0,0.0,86,0.00,,SCT120,0.58,VWS V14.01,2013-07-27 04:23:00,
2013-07-26 23:25:00,63.5,59.2,29.78,West,260,0.0,0.0,86,0.00,,FEW250,0.58,VWS V14.01,2013-07-27 04:25:00,
2013-07-26 23:28:00,63.3,59.0,29.78,WSW,252,0.0,0.0,86,0.00,,SCT120,0.58,VWS V14.01,2013-07-27 04:28:00,
2013-07-26 23:30:00,63.2,59.0,29.78,WSW,247,0.0,0.0,86,0.00,,FEW250,0.58,VWS V14.01,2013-07-27 04:30:00,
2013-07-26 23:33:00,63.0,59.1,29.78,West,260,0.0,0.0,87,0.00,,SCT120,0.58,VWS V14.01,2013-07-27 04:33:00,
2013-07-26 23:35:00,62.9,59.0,29.78,WSW,252,0.0,0.0,87,0.00,,FEW250,0.58,VWS V14.01,2013-07-27 04:35:00,
2013-07-26 23:38:00,62.7,58.8,29.78,WSW,248,0.0,0.0,87,0.00,,SCT120,0.58,VWS V14.01,2013-07-27 04:38:00,
2013-07-26 23:40:00,62.6,58.7,29.78,WSW,257,0.0,0.0,87,0.00,,FEW250,0.58,VWS V14.01,2013-07-27 04:40:00,
2013-07-26 23:43:00,62.4,58.8,29.78,WSW,257,3.0,4.0,88,0.00,,SCT120,0.58,VWS V14.01,2013-07-27 04:43:00,
2013-07-26 23:45:00,62.4,58.8,29.79,West,261,0.0,4.0,88,0.00,,FEW250,0.58,VWS V14.01,2013-07-27 04:45:00,
2013-07-26 23:48:00,62.3,58.7,29.79,WSW,243,0.0,7.0,88,0.00,,SCT120,0.58,VWS V14.01,2013-07-27 04:48:00,
2013-07-26 23:50:00,62.2,58.6,29.79,West,270,0.0,7.0,88,0.00,,FEW250,0.58,VWS V14.01,2013-07-27 04:50:00,
2013-07-26 23:53:00,62.2,58.6,29.79,West,269,5.0,8.0,88,0.00,,SCT120,0.58,VWS V14.01,2013-07-27 04:53:00,
2013-07-26 23:55:00,62.2,58.6,29.79,West,259,3.0,8.0,88,0.00,,FEW250,0.58,VWS V14.01,2013-07-27 04:55:00,
2013-07-26 23:58:00,62.2,58.6,29.79,West,268,4.0,9.0,88,0.00,,SCT120,0.58,VWS V14.01,2013-07-27 04:58:00,